FW7026 Weather Reports


Display with metric or nautical units.
time (UTC)temp
F
wind
direction
speed
MPH
gust
MPH
rain 1hr
in
rain 24hr
in
rain mn
in
humidity
%
barometer
mb
20260509004940 42 201 0.0 0.0 0.00 0.00 0.00 64 1005.4
20260509004437 42 221 0.0 0.0 0.00 0.00 0.00 66 1005.4
20260509003935 42 224 0.0 0.0 0.00 0.00 0.00 65 1005.4
20260509003433 42 245 0.0 0.0 0.00 0.00 0.00 65 1005.4
20260509002929 42 206 0.0 2.0 0.00 0.00 0.00 65 1005.4
20260509002427 42 226 0.0 0.0 0.00 0.00 0.00 65 1004.9
20260509001924 43 207 0.0 0.0 0.00 0.00 0.00 65 1004.9
20260509001421 43 237 0.0 0.0 0.00 0.00 0.00 64 1004.9
20260509000918 43 231 0.0 0.0 0.00 0.00 0.00 64 1004.9
20260509000418 43 207 0.0 0.0 0.00 0.00 0.00 64 1004.9
20260508235911 43 190 0.0 0.0 0.00 0.00 0.00 64 1004.9
20260508235409 43 198 0.0 0.0 0.00 0.00 0.00 63 1004.6
20260508234906 43 207 0.0 0.0 0.00 0.00 0.00 62 1004.6
20260508234402 43 202 0.0 0.0 0.00 0.00 0.00 61 1004.6
20260508233901 44 211 0.0 0.0 0.00 0.00 0.00 61 1004.6
20260508233400 44 196 0.0 0.0 0.00 0.00 0.00 61 1004.3
20260508232856 44 202 0.0 0.0 0.00 0.00 0.00 59 1004.6
20260508232352 45 229 0.0 0.0 0.00 0.00 0.00 59 1004.3
20260508231851 45 229 0.0 0.0 0.00 0.00 0.00 58 1004.3
20260508231347 45 198 0.0 0.0 0.00 0.00 0.00 57 1004.3
20260508230843 46 189 0.0 0.0 0.00 0.00 0.00 57 1004.3
20260508230340 46 212 0.0 0.0 0.00 0.00 0.00 56 1004.3
20260508225838 46 198 0.0 0.0 0.00 0.00 0.00 55 1004.3
20260508225334 46 145 0.0 0.0 0.00 0.00 0.00 54 1003.9
20260508224832 47 252 0.0 0.0 0.00 0.00 0.00 54 1003.9
20260508224329 46 239 0.0 0.0 0.00 0.00 0.00 54 1004.3
20260508223827 46 231 0.0 0.0 0.00 0.00 0.00 53 1003.9
20260508223324 47 256 0.0 0.0 0.00 0.00 0.00 52 1003.9
20260508222822 46 242 0.0 0.0 0.00 0.00 0.00 52 1003.9
20260508222318 46 226 0.0 0.0 0.00 0.00 0.00 52 1003.6
20260508221815 46 207 0.0 0.0 0.00 0.00 0.00 51 1003.6
20260508221310 47 241 0.0 0.0 0.00 0.00 0.00 51 1003.6
20260508220807 47 193 0.0 0.0 0.00 0.00 0.00 49 1003.6
20260508220304 47 287 0.0 5.0 0.00 0.00 0.00 49 1003.6
20260508215800 47 232 0.0 0.0 0.00 0.00 0.00 47 1003.6
20260508215257 48 219 0.0 0.0 0.00 0.00 0.00 49 1003.6
20260508214754 48 239 0.0 0.0 0.00 0.00 0.00 48 1003.2
20260508214251 48 190 0.0 0.0 0.00 0.00 0.00 48 1003.2
20260508213747 48 264 0.0 0.0 0.00 0.00 0.00 47 1003.2
20260508213244 49 277 0.0 0.0 0.00 0.00 0.00 47 1003.2
20260508212735 49 253 0.0 0.0 0.00 0.00 0.00 46 1003.2
20260508212231 49 233 0.0 0.0 0.00 0.00 0.00 44 1002.9
20260508211726 50 327 0.0 0.0 0.00 0.00 0.00 43 1003.2
20260508211223 50 255 0.0 0.0 0.00 0.00 0.00 43 1002.9
20260508210721 51 263 0.0 0.0 0.00 0.00 0.00 43 1002.9
20260508210218 50 217 0.0 0.0 0.00 0.00 0.00 40 1002.9
20260508205714 51 198 0.0 0.0 0.00 0.00 0.00 40 1002.9
20260508205211 51 214 0.0 0.0 0.00 0.00 0.00 40 1002.6
20260508204707 51 174 0.0 0.0 0.00 0.00 0.00 38 1002.6
20260508204204 51 107 0.0 0.0 0.00 0.00 0.00 41 1002.6
20260508203700 51 37 0.0 0.0 0.00 0.00 0.00 38 1002.6
20260508203156 51 223 0.0 0.0 0.00 0.00 0.00 38 1002.6
20260508202652 51 280 0.0 0.0 0.00 0.00 0.00 37 1002.6
20260508202149 51 190 0.0 0.0 0.00 0.00 0.00 37 1002.2
20260508201646 51 156 0.0 0.0 0.00 0.00 0.00 37 1002.6
20260508201143 53 314 0.0 0.0 0.00 0.00 0.00 36 1002.2
20260508200639 53 145 0.0 0.0 0.00 0.00 0.00 35 1002.2
20260508200136 52 358 0.0 0.0 0.00 0.00 0.00 38 1002.2
20260508195632 51 3 0.0 0.0 0.00 0.00 0.00 38 1002.2
20260508195129 50 5 0.0 0.0 0.00 0.00 0.00 41 1002.2
20260508194625 51 336 0.0 0.0 0.00 0.00 0.00 38 1002.6
20260508194123 51 3 0.0 0.0 0.00 0.00 0.00 37 1002.2
20260508193619 52 28 0.0 0.0 0.00 0.00 0.00 37 1002.2
20260508193116 52 290 0.0 0.0 0.00 0.00 0.00 42 1002.2
20260508192613 52 222 0.0 0.0 0.00 0.00 0.00 43 1002.2
20260508192110 51 187 0.0 0.0 0.00 0.00 0.00 40 1002.6
20260508191607 51 264 0.0 0.0 0.00 0.00 0.00 43 1002.2
20260508191103 51 289 0.0 0.0 0.00 0.00 0.00 43 1002.2
20260508190600 51 47 0.0 0.0 0.00 0.00 0.00 43 1002.2
20260508190057 51 221 0.0 2.0 0.00 0.00 0.00 39 1002.2
20260508185554 52 23 0.0 0.0 0.00 0.00 0.00 40 1002.2
20260508185052 53 100 0.0 0.0 0.00 0.00 0.00 37 1002.6
20260508184549 55 327 0.0 0.0 0.00 0.00 0.00 40 1002.2
20260508184045 52 197 0.0 0.0 0.00 0.00 0.00 43 1002.2
20260508183542 51 215 0.0 0.0 0.00 0.00 0.00 42 1002.6
20260508183038 51 240 0.0 2.0 0.00 0.00 0.00 42 1002.2
20260508182535 52 280 0.0 0.0 0.00 0.00 0.00 39 1002.2
20260508182031 52 222 0.0 0.0 0.00 0.00 0.00 43 1002.2
20260508181526 52 332 0.0 0.0 0.00 0.00 0.00 41 1002.2
20260508181025 51 276 0.0 0.0 0.00 0.00 0.00 44 1002.2
20260508180521 51 259 0.0 0.0 0.00 0.00 0.00 43 1002.6
20260508180017 50 355 0.0 0.0 0.00 0.00 0.00 40 1002.6
20260508175514 51 188 0.0 0.0 0.00 0.00 0.00 42 1002.2
20260508175011 51 229 0.0 0.0 0.00 0.00 0.00 40 1002.2
20260508174509 50 250 0.0 0.0 0.00 0.00 0.00 42 1002.2
20260508174005 50 349 0.0 0.0 0.00 0.00 0.00 42 1002.2
20260508173503 51 202 0.0 0.0 0.00 0.00 0.00 43 1002.2
20260508172959 50 345 0.0 0.0 0.00 0.00 0.00 44 1002.2
20260508172455 49 160 0.0 0.0 0.00 0.00 0.00 43 1002.2
20260508171952 49 0 1.0 2.0 0.00 0.00 0.00 44 1002.2
20260508171449 49 302 0.0 2.0 0.00 0.00 0.00 43 1002.2
20260508170945 49 304 0.0 0.0 0.00 0.00 0.00 44 1002.2
20260508170443 51 43 0.0 0.0 0.00 0.00 0.00 43 1001.9
20260508165939 53 27 0.0 0.0 0.00 0.00 0.00 39 1001.9
20260508165437 53 13 0.0 2.0 0.00 0.00 0.00 41 1001.9
20260508164933 53 209 0.0 0.0 0.00 0.00 0.00 44 1001.9
20260508164430 50 66 0.0 0.0 0.00 0.00 0.00 46 1001.9
20260508163927 49 3 0.0 0.0 0.00 0.00 0.00 43 1001.9
20260508163425 49 256 0.0 0.0 0.00 0.00 0.00 44 1001.9
20260508162920 51 25 0.0 0.0 0.00 0.00 0.00 45 1002.2
20260508162418 51 82 0.0 0.0 0.00 0.00 0.00 46 1001.9
20260508161915 50 186 0.0 0.0 0.00 0.00 0.00 46 1001.9
20260508161412 51 40 0.0 0.0 0.00 0.00 0.00 46 1001.9
20260508160909 52 207 0.0 0.0 0.00 0.00 0.00 44 1001.9
20260508160408 52 231 0.0 0.0 0.00 0.00 0.00 47 1002.2
20260508155903 50 12 0.0 0.0 0.00 0.00 0.00 46 1002.2
20260508155401 50 25 0.0 0.0 0.00 0.00 0.00 46 1002.2
20260508154858 51 143 0.0 0.0 0.00 0.00 0.00 47 1002.2
20260508154355 50 185 0.0 0.0 0.00 0.00 0.00 47 1002.2
20260508153852 50 9 0.0 0.0 0.00 0.00 0.00 49 1002.6
20260508153349 50 20 0.0 0.0 0.00 0.00 0.00 54 1002.2
20260508152845 49 99 0.0 0.0 0.00 0.00 0.00 51 1002.6
20260508152342 49 74 0.0 0.0 0.00 0.00 0.00 52 1002.6
20260508151838 49 3 2.0 5.0 0.00 0.00 0.00 51 1002.6
20260508151335 48 230 0.0 0.0 0.00 0.00 0.00 52 1002.6
20260508150831 47 209 0.0 0.0 0.00 0.00 0.00 49 1002.6
20260508150328 48 201 0.0 5.0 0.00 0.00 0.00 52 1002.6
20260508145824 48 198 0.0 0.0 0.00 0.00 0.00 52 1002.6
20260508145321 48 100 0.0 0.0 0.00 0.00 0.00 52 1002.6
20260508144818 48 187 0.0 0.0 0.00 0.00 0.00 53 1002.6
20260508144316 48 232 0.0 0.0 0.00 0.00 0.00 56 1002.9
20260508143813 47 20 0.0 0.0 0.00 0.00 0.00 54 1002.9
20260508143310 47 297 0.0 0.0 0.00 0.00 0.00 54 1002.6
20260508142807 47 161 0.0 0.0 0.00 0.00 0.00 56 1002.9
20260508142306 46 138 0.0 0.0 0.00 0.00 0.00 53 1002.9
20260508141759 47 178 0.0 0.0 0.00 0.00 0.00 53 1002.9
20260508141257 47 217 0.0 0.0 0.00 0.00 0.00 53 1002.9
20260508140754 48 40 0.0 2.0 0.00 0.00 0.00 49 1002.9
20260508140251 49 341 1.0 5.0 0.00 0.00 0.00 50 1002.6
20260508135747 50 302 0.0 0.0 0.00 0.00 0.00 53 1002.6
20260508135243 49 333 0.0 8.0 0.00 0.00 0.00 52 1002.6
20260508134738 49 14 1.0 2.0 0.00 0.00 0.00 57 1002.6
20260508134236 48 324 3.0 5.0 0.00 0.00 0.00 53 1002.6
20260508133733 48 285 0.0 5.0 0.00 0.00 0.00 52 1002.6
20260508133231 50 62 3.0 5.0 0.00 0.00 0.00 50 1002.6
20260508132728 49 43 0.0 0.0 0.00 0.00 0.00 55 1002.6
20260508132225 48 48 3.0 10.0 0.00 0.00 0.00 55 1002.6
20260508131721 49 359 0.0 2.0 0.00 0.00 0.00 52 1002.6
20260508131218 49 276 0.0 2.0 0.00 0.00 0.00 59 1002.6
20260508130714 47 356 5.0 8.0 0.00 0.00 0.00 56 1002.6
20260508130212 47 11 1.0 5.0 0.00 0.00 0.00 58 1002.6
20260508125707 47 156 0.0 5.0 0.00 0.00 0.00 57 1002.6
20260508125203 47 335 1.0 2.0 0.00 0.00 0.00 61 1002.2
20260508124702 46 46 0.0 5.0 0.00 0.00 0.00 60 1002.6
20260508124158 48 220 0.0 5.0 0.00 0.00 0.00 62 1002.2
20260508123657 47 357 1.0 2.0 0.00 0.00 0.00 63 1002.6
20260508123155 46 8 2.0 8.0 0.00 0.00 0.00 64 1002.2
20260508122650 47 344 2.0 5.0 0.00 0.00 0.00 62 1002.2
20260508122147 46 250 1.0 2.0 0.00 0.00 0.00 67 1002.2
20260508121645 45 337 3.0 5.0 0.00 0.00 0.00 66 1002.2
20260508121143 44 160 0.0 0.0 0.00 0.00 0.00 70 1002.2
20260508120640 43 311 0.0 5.0 0.00 0.00 0.00 70 1002.2
20260508120139 42 129 0.0 0.0 0.00 0.00 0.00 71 1002.2
20260508115636 42 191 0.0 0.0 0.00 0.00 0.00 71 1002.2
20260508115132 42 199 0.0 0.0 0.00 0.00 0.00 73 1002.2
20260508114629 42 263 0.0 0.0 0.00 0.00 0.00 74 1002.2
20260508114125 41 66 0.0 0.0 0.00 0.00 0.00 76 1001.9
20260508113623 41 245 0.0 0.0 0.00 0.00 0.00 78 1001.9
20260508113121 41 235 1.0 2.0 0.00 0.00 0.00 81 1001.9
20260508112617 41 106 0.0 0.0 0.00 0.00 0.00 82 1001.9
20260508112114 41 281 0.0 0.0 0.00 0.00 0.00 85 1001.9
20260508111611 41 191 0.0 0.0 0.00 0.00 0.00 85 1001.9
20260508111108 41 220 0.0 0.0 0.00 0.00 0.00 86 1001.9
20260508110606 41 201 0.0 0.0 0.00 0.00 0.00 86 1001.6
20260508105557 40 200 0.0 0.0 0.00 0.00 0.00 86 1001.6
20260508105054 40 128 0.0 0.0 0.00 0.00 0.00 86 1001.6
20260508104552 40 288 0.0 2.0 0.00 0.00 0.00 86 1001.9
20260508104048 40 278 0.0 0.0 0.00 0.00 0.00 86 1001.6
20260508103545 40 131 0.0 0.0 0.00 0.00 0.00 86 1001.6
20260508103043 39 225 0.0 0.0 0.00 0.00 0.00 86 1001.2
20260508102540 39 220 0.0 0.0 0.00 0.00 0.00 86 1001.2
20260508102038 39 196 0.0 0.0 0.00 0.00 0.00 86 1001.6
20260508101535 39 216 0.0 0.0 0.00 0.00 0.00 85 1001.2
20260508101032 39 203 0.0 0.0 0.00 0.00 0.00 85 1001.2
20260508100530 39 199 0.0 0.0 0.00 0.00 0.00 85 1001.2
20260508100027 39 207 0.0 0.0 0.00 0.00 0.00 84 1000.9
20260508095524 39 214 0.0 0.0 0.00 0.00 0.00 84 1001.2
20260508095021 39 203 0.0 0.0 0.00 0.00 0.00 84 1001.2
20260508094518 39 211 0.0 0.0 0.00 0.00 0.00 83 1000.9
20260508094015 39 195 0.0 0.0 0.00 0.00 0.00 83 1000.9
20260508093511 39 240 0.0 0.0 0.00 0.00 0.00 82 1000.9
20260508093010 39 329 0.0 0.0 0.00 0.00 0.00 82 1000.9
20260508092507 39 353 0.0 0.0 0.00 0.00 0.00 82 1000.9
20260508092006 39 1 0.0 0.0 0.00 0.00 0.00 81 1000.9
20260508091502 39 186 0.0 0.0 0.00 0.00 0.00 81 1000.4
20260508090959 39 220 0.0 0.0 0.00 0.00 0.00 81 1000.4
20260508090457 39 230 0.0 0.0 0.00 0.00 0.00 80 1000.4
20260508085953 39 9 0.0 0.0 0.00 0.00 0.00 80 1000.4
20260508085450 39 16 0.0 0.0 0.00 0.00 0.00 80 1000.4
20260508084947 39 161 0.0 0.0 0.00 0.00 0.00 80 1000.4
20260508084443 39 105 0.0 0.0 0.00 0.00 0.00 80 1000.4
20260508083942 39 235 0.0 0.0 0.00 0.00 0.00 80 1000.4
20260508083438 39 201 0.0 0.0 0.00 0.00 0.00 80 1000.4
20260508082938 39 220 0.0 0.0 0.00 0.00 0.00 80 1000.4
20260508082436 39 193 0.0 0.0 0.00 0.00 0.00 80 1000.4
20260508081934 39 203 0.0 0.0 0.00 0.00 0.00 79 1000.4
20260508081430 39 182 0.0 0.0 0.00 0.00 0.00 79 1000.1
20260508080926 39 199 0.0 0.0 0.00 0.00 0.00 79 1000.4
20260508080425 39 203 0.0 0.0 0.00 0.00 0.00 79 1000.1
20260508075921 39 196 0.0 0.0 0.00 0.00 0.00 78 1000.1
20260508075418 39 208 0.0 0.0 0.00 0.00 0.00 78 1000.1
20260508074916 39 209 0.0 0.0 0.00 0.00 0.00 78 1000.1
20260508074413 39 199 0.0 0.0 0.00 0.00 0.00 78 1000.1
20260508073910 39 206 0.0 0.0 0.00 0.00 0.00 77 1000.1
20260508073408 39 193 0.0 0.0 0.00 0.00 0.00 77 1000.1
20260508072904 39 194 0.0 0.0 0.00 0.00 0.00 77 1000.1
20260508072401 39 183 0.0 0.0 0.00 0.00 0.00 77 1000.1
20260508071857 39 168 0.0 0.0 0.00 0.00 0.00 76 1000.1
20260508071356 39 184 0.0 0.0 0.00 0.00 0.00 76 1000.1
20260508070853 39 191 0.0 0.0 0.00 0.00 0.00 76 1000.1
20260508070351 39 223 0.0 0.0 0.00 0.00 0.00 76 1000.1
20260508065849 39 192 0.0 0.0 0.00 0.00 0.00 76 1000.4
20260508065347 39 220 0.0 0.0 0.00 0.00 0.00 76 1000.1
20260508064845 39 189 0.0 5.0 0.00 0.00 0.00 76 1000.1
20260508064342 39 194 0.0 0.0 0.00 0.00 0.00 76 1000.1
20260508063840 39 257 0.0 0.0 0.00 0.00 0.00 75 1000.4
20260508063337 39 220 0.0 0.0 0.00 0.00 0.00 75 1000.4
20260508062834 39 186 0.0 0.0 0.00 0.00 0.00 75 1000.1
20260508062332 39 177 0.0 0.0 0.00 0.00 0.00 75 1000.4
20260508061828 39 215 0.0 0.0 0.00 0.00 0.00 75 1000.4
20260508061326 39 138 0.0 0.0 0.00 0.00 0.00 75 1000.1
20260508060822 39 221 0.0 2.0 0.00 0.00 0.00 74 1000.4
20260508060320 39 218 0.0 0.0 0.00 0.00 0.00 74 1000.4
20260508055814 39 262 0.0 0.0 0.00 0.00 0.00 74 1000.4
20260508055313 39 204 0.0 0.0 0.00 0.00 0.00 74 1000.4
20260508054809 39 259 0.0 0.0 0.00 0.00 0.00 74 1000.4
20260508054306 39 240 0.0 0.0 0.00 0.00 0.00 74 1000.4
20260508053803 39 228 0.0 0.0 0.00 0.00 0.00 74 1000.4
20260508053300 39 238 0.0 0.0 0.00 0.00 0.00 74 1000.4
20260508052758 39 203 0.0 0.0 0.00 0.00 0.00 74 1000.4
20260508052255 39 212 0.0 0.0 0.00 0.00 0.00 75 1000.4
20260508051751 38 198 0.0 0.0 0.00 0.00 0.00 75 1000.4
20260508051246 38 226 0.0 5.0 0.00 0.00 0.00 76 1000.4
20260508050743 38 210 0.0 2.0 0.00 0.00 0.00 76 1000.4
20260508050240 37 173 0.0 0.0 0.00 0.00 0.00 77 1000.9
20260508045735 37 254 0.0 5.0 0.00 0.00 0.00 77 1000.4
20260508045234 37 200 0.0 0.0 0.00 0.00 0.00 77 1000.9
20260508044731 37 236 0.0 0.0 0.00 0.00 0.00 78 1000.9
20260508044228 37 207 0.0 0.0 0.00 0.00 0.00 78 1000.9
20260508043724 37 181 0.0 0.0 0.00 0.00 0.00 78 1000.9
20260508043221 37 206 0.0 0.0 0.00 0.00 0.00 78 1000.9
20260508042718 37 228 0.0 0.0 0.00 0.00 0.00 78 1000.9
20260508042215 37 192 0.0 0.0 0.00 0.00 0.00 78 1000.9
20260508041711 36 196 0.0 0.0 0.00 0.00 0.00 77 1000.9
20260508041209 36 197 0.0 0.0 0.00 0.00 0.00 77 1000.9
20260508040705 36 199 0.0 0.0 0.00 0.00 0.00 77 1000.9
20260508040202 37 190 0.0 0.0 0.00 0.00 0.00 77 1000.9
20260508035659 37 190 0.0 0.0 0.00 0.44 0.44 77 1000.9
20260508035157 37 202 0.0 0.0 0.00 0.44 0.44 77 1000.9
20260508034653 37 216 0.0 0.0 0.00 0.44 0.44 77 1000.9
20260508034150 37 196 0.0 0.0 0.00 0.44 0.44 77 1000.9
20260508033648 37 196 0.0 0.0 0.00 0.44 0.44 77 1000.9
20260508033146 37 208 0.0 0.0 0.00 0.44 0.44 76 1000.9
20260508032643 37 208 0.0 0.0 0.00 0.44 0.44 76 1000.9
20260508032140 38 195 0.0 0.0 0.00 0.44 0.44 76 1000.9
20260508031637 38 208 0.0 0.0 0.00 0.44 0.44 76 1000.9
20260508031133 39 186 0.0 0.0 0.00 0.44 0.44 76 1000.9
20260508030629 39 217 0.0 0.0 0.00 0.44 0.44 76 1000.9
20260508030127 39 218 0.0 0.0 0.00 0.44 0.44 76 1001.2
20260508025623 39 268 0.0 0.0 0.00 0.44 0.44 76 1001.2
20260508025121 39 190 0.0 0.0 0.00 0.44 0.44 76 1001.2
20260508024616 39 195 0.0 0.0 0.00 0.44 0.44 76 1001.2
20260508024114 39 183 0.0 0.0 0.00 0.44 0.44 76 1001.2
20260508023610 39 192 0.0 0.0 0.00 0.44 0.44 76 1001.6
20260508023108 40 195 0.0 0.0 0.00 0.44 0.44 76 1001.2
20260508022603 40 204 0.0 0.0 0.00 0.44 0.44 76 1001.6
20260508022101 40 200 0.0 0.0 0.00 0.44 0.44 76 1001.6
20260508021556 40 220 0.0 0.0 0.00 0.44 0.44 76 1001.6
20260508021052 40 205 0.0 0.0 0.00 0.44 0.44 76 1001.2
20260508020550 40 201 0.0 0.0 0.00 0.44 0.44 76 1001.6
20260508020048 40 211 0.0 0.0 0.00 0.44 0.44 76 1001.6
20260508015545 40 190 0.0 0.0 0.00 0.44 0.44 76 1001.6
20260508015042 40 192 0.0 0.0 0.00 0.44 0.44 76 1001.2
20260508014538 40 207 0.0 0.0 0.00 0.44 0.44 76 1001.2
20260508014034 40 200 0.0 0.0 0.00 0.44 0.44 76 1001.6
20260508013530 40 206 0.0 0.0 0.00 0.44 0.44 75 1001.6
20260508013028 41 204 0.0 0.0 0.00 0.44 0.44 75 1001.6
20260508012525 41 200 0.0 0.0 0.00 0.44 0.44 75 1001.6
20260508012022 41 213 0.0 0.0 0.00 0.44 0.44 75 1001.6
20260508011520 41 268 0.0 0.0 0.00 0.44 0.44 75 1001.6
20260508011017 41 10 0.0 0.0 0.00 0.44 0.44 74 1001.6
20260508010514 41 352 0.0 2.0 0.00 0.44 0.44 74 1001.6
20260508010012 42 109 0.0 5.0 0.00 0.44 0.44 71 1001.9
20260508005508 42 279 0.0 0.0 0.00 0.44 0.44 70 1001.9